Home   Weather   Piešťany   Past weeks

Flag for Slovakia Past Weather in Piešťany, Slovakia — Yesterday and Last 2 Weeks

Now
59 °F

Light rain. Overcast.


Feels Like: 57 °F
Forecast: 60 / 78 °F
Wind: 9 mph from West

Location: Piestany

Current Time: Jul 27, 2017 at 6:59:59 am

Latest Report: Jul 27, 2017 at 6:30 am


Visibility: N/A

Pressure: 29.74 "Hg

Humidity: 94%

Dew Point: 57 °F

Location of PiešťanyLocation

Past Weather in Piešťany — Graph

°F

Piešťany Temperature Yesterday

Maximum temperature yesterday: 70 °F (at 1:30 pm)
Minimum temperature yesterday: 54 °F (at 5:30 am)
Average temperature yesterday: 63 °F

High & Low Weather Summary for the Past Weeks

 TemperatureHumidityPressure
High91 °F (Jul 20, 3:00 pm)100% (Jul 23, 3:30 am)30.21 "Hg (Jul 23, 3:30 am)
Low46 °F (Jul 14, 2:30 am)21% (Jul 16, 4:00 pm)29.62 "Hg (Jul 24, 6:30 pm)
Average69 °F61%29.94 "Hg
* Reported Jul 12 5:00 am — Jul 27 5:30 am, Piešťany. Weather by CustomWeather, © 2017

Note: Actual official high and low records may vary slightly from our data, if they occured in-between our weather recording intervals... More about our weather records

Advertising

Piešťany Weather History for the Previous 24 Hours

Scroll right to see more
 ConditionsComfort  
Time TempWeatherWind HumidityBarometerVisibility
5:30 am
Thu, Jul 27
61 °FDrizzle. Overcast.6 mph83%29.74 "HgN/A
5:00 am59 °FMostly cloudy.6 mph88%29.74 "HgN/A
4:30 am59 °FOvercast.5 mph88%29.74 "HgN/A
4:00 am59 °FOvercast.3 mph88%29.74 "HgN/A
3:30 am59 °FOvercast.1 mph88%29.74 "HgN/A
3:00 am59 °FOvercast.3 mph88%29.74 "HgN/A
2:30 am57 °FOvercast.3 mph88%29.74 "HgN/A
2:00 am57 °FOvercast.2 mph88%29.74 "HgN/A
1:30 am57 °FOvercast.1 mph88%29.74 "HgN/A
1:00 am57 °FMostly cloudy.2 mph88%29.74 "HgN/A
12:30 am57 °FOvercast.2 mph88%29.74 "HgN/A
12:00 am57 °FMostly cloudy.5 mph88%29.71 "HgN/A
11:30 pm
Wed, Jul 26
57 °FPassing clouds.6 mph88%29.71 "HgN/A
11:00 pm57 °FCool.2 mph88%29.71 "HgN/A
10:30 pm61 °FCool.2 mph77%29.71 "HgN/A
10:00 pm63 °FPassing clouds.3 mph73%29.71 "HgN/A
9:30 pm63 °FPassing clouds.6 mph73%29.71 "HgN/A
9:00 pm63 °FPassing clouds.5 mph73%29.68 "HgN/A
8:30 pm64 °FScattered clouds.7 mph68%29.68 "HgN/A
8:00 pm66 °FPassing clouds.7 mph60%29.68 "HgN/A
7:30 pm66 °FScattered clouds.10 mph60%29.65 "HgN/A
7:00 pm70 °FScattered clouds.10 mph53%29.65 "HgN/A
6:30 pm68 °FScattered clouds.9 mph56%29.65 "HgN/A
6:00 pm68 °FScattered clouds.9 mph60%29.65 "HgN/A
5:30 pm66 °FScattered clouds.6 mph68%29.65 "HgN/A
5:00 pm64 °FBroken clouds.12 mph73%29.65 "HgN/A
4:30 pm66 °FLight rain. Scattered clouds.8 mph64%29.65 "HgN/A
4:00 pm68 °FBroken clouds.6 mph56%29.65 "HgN/A
3:30 pm66 °FScattered clouds.2 mph68%29.68 "HgN/A
3:00 pm64 °FBroken clouds.6 mph73%29.68 "HgN/A
2:30 pm64 °FScattered showers. Partly sunny.10 mph68%29.65 "HgN/A
2:00 pm68 °FPartly sunny.14 mph56%29.65 "HgN/A
1:30 pm70 °FPartly sunny.10 mph53%29.65 "HgN/A
1:00 pm68 °FBroken clouds.13 mph53%29.65 "HgN/A
12:30 pm68 °FBroken clouds.14 mph53%29.65 "HgN/A
12:00 pm66 °FBroken clouds.16 mph52%29.65 "HgN/A
11:30 am68 °FScattered clouds.20 mph49%29.65 "HgN/A
11:00 am66 °FBroken clouds.18 mph52%29.65 "HgN/A
10:30 am66 °FPartly sunny.20 mph49%29.65 "HgN/A
10:00 am66 °FScattered clouds.16 mph52%29.65 "HgN/A
9:30 am66 °FScattered clouds.15 mph56%29.65 "HgN/A
9:00 am64 °FScattered clouds.9 mph60%29.65 "HgN/A
8:00 am61 °FPassing clouds.2 mph68%29.68 "HgN/A
7:30 am61 °FScattered clouds.2 mph68%29.68 "HgN/A
7:00 am61 °FScattered clouds.3 mph68%29.68 "HgN/A
6:30 am57 °FScattered clouds.3 mph82%29.68 "HgN/A
6:00 am55 °FScattered clouds.3 mph82%29.68 "HgN/A
Weather by CustomWeather, © 2017

See weather overviewHow to use our weather pages